Hourly Data Report for September 18, 2010

PETERBOROUGH AWOS
ONTARIO

44°14'00.000" N
78°22'00.000" W
191.40 m
6166420

Download Data

Hourly Data (September 2010)
Hourly Data Report for September 18, 2010
TIME
LST
Temp Definition
°C
Dew Point Definition
°C
Rel Hum Definition
%
Precip. Amount Definition
mm

Wind Dir Definition
10's deg

Wind Spd Definition
km/h
Visibility Definition
km
Stn Press Definition
kPa
Hmdx Definition


Wind Chill Definition


Weather Definition


00:00 4.9 4.9 100   LegendMM LegendMM 4.0 99.86      
01:00 5.0 5.0 100   LegendMM LegendMM 15.0 99.87      
02:00 6.0 6.0 100   LegendMM LegendMM 15.0 99.84      
03:00 4.9 4.9 100   LegendMM LegendMM 5.6 99.85      
04:00 4.1 4.1 100   LegendMM LegendMM 15.0 99.88      
05:00 3.9 3.9 100   LegendMM LegendMM 15.0 99.89      
06:00 4.3 4.3 100   LegendMM LegendMM 15.0 99.90      
07:00 6.6 6.6 100   LegendMM LegendMM 15.0 99.83      
08:00 10.0 9.7 98   LegendMM LegendMM 15.0 99.85      
09:00 15.3 12.3 82   LegendMM LegendMM 15.0 99.77      
10:00 16.3 11.7 74   LegendMM LegendMM 15.0 99.77      
11:00 17.7 10.6 63   LegendMM LegendMM 15.0 99.77      
12:00 18.1 11.3 64   LegendMM LegendMM 15.0 99.74      
13:00 17.4 13.0 75   LegendMM LegendMM 15.0 99.62      
14:00 17.6 12.7 73   LegendMM LegendMM 15.0 99.46      
15:00 18.1 12.8 71   LegendMM LegendMM 15.0 99.53      
16:00 17.5 13.1 75   LegendMM LegendMM 15.0 99.51      
17:00 17.2 13.3 78   LegendMM LegendMM 15.0 99.47      
18:00 17.4 13.6 78   LegendMM LegendMM 15.0 99.47      
19:00 16.8 14.1 84   LegendMM LegendMM 15.0 99.51      
20:00 15.3 13.7 90   LegendMM LegendMM 15.0 99.63      
21:00 15.1 12.7 86   LegendMM LegendMM 15.0 99.68      
22:00 14.6 12.8 89   LegendMM LegendMM 15.0 99.71      
23:00 13.2 11.6 90   LegendMM LegendMM 15.0 99.74      

Notes on Data Quality.

Legend

  • E = Estimated
  • M = Missing
  • NA = Not Available*
  • [empty] = Indicates an unobserved value
Date modified: